Location: Esp�n
(42.4593°N, 0.2047°W)
Time: 08:21:45
(UTC+00:00)

STARLINK-70 - Pass Details

Date: 05 October 2020
Orbit: 441 x 442 km, 53.0° (Epoch: 21 October)

Event Time Altitude Azimuth Distance (km) Brightness Sun altitude
Exits shadow 05:03:58 10° 222° (SW) 1,534 5.5 -11.6°
Maximum altitude 05:07:23 65° 140° (SE) 489 3.5 -11.0°
Drops below altitude 10° 05:10:51 10° 58° (ENE) 1,559 7.0 -10.4°
Sets 05:12:59 0° 56° (NE) 2,432 8.0 -10.0°
